QPF
0.00 0.00 0.00 0.00 0.00 0.00 0.00 0.00 0.00 0.00 0.00 0.00 0.00 0.00 0.00 0.00 0.00 0.00 0.00 0.00 0.00 0.00 0.00 0.00 0.00 0.00 0.00 0.00 0.00 0.00 0.00 0.00 0.00 0.00 0.00 0.00 0.00 0.00 0.00 0.00 0.00 0.00 0.00 0.00
0.00 0.00 0.00 0.00 0.00 0.00 0.00 0.00 0.00 0.00 0.00 0.00 0.00 0.00 0.00 0.00 0.00 0.00 0.00 0.00 0.00 0.00 0.00 0.00 0.00 0.00 0.00 0.00 0.00 0.00 0.00 0.00 0.00 0.00 0.00 0.00 0.00 0.00 0.00 0.00 0.00 0.00 0.00 0.00
0.00 0.00 0.00 0.00 0.00 0.00 0.00 0.00 0.00 0.00 0.00 0.00 0.00 0.00 0.00 0.00 0.00 0.00 0.00 0.00 0.00 0.00 0.00 0.00 0.00 0.00 0.00 0.00 0.00 0.00 0.00 0.00 0.00 0.00 0.00 0.00 0.00 0.00 0.00 0.00 0.00 0.00 0.00 0.00
0.00 0.00 0.00 0.00 0.00 0.00 0.00 0.00 0.00 0.00 0.00 0.00 0.00 0.00 0.00 0.00 0.00 0.00 0.00 0.00 0.00 0.00 0.00 0.00 0.00 0.00 0.00 0.00 0.00 0.00 0.00 0.00 0.00 0.00 0.00 0.00 0.00 0.00 0.00 0.00 0.00 0.00 0.00 0.00
0.00 0.00 0.00 0.00 0.00 0.00 0.00 0.00 0.00 0.00 0.00 0.00 0.00 0.00 0.00 0.00 0.00 0.00 0.00 0.00 0.00 0.00 0.00 0.00 0.00 0.00 0.00 0.00 0.00 0.00 0.00 0.00 0.00 0.00 0.00 0.00 0.00 0.00 0.00 0.00 0.00 0.00 0.00 0.00
0.00 0.00 0.00 0.00 0.00 0.00 0.00 0.00 0.00 0.00 0.00 0.00 0.00 0.00 0.00 0.00 0.00 0.00 0.00 0.00 0.00 0.00 0.00 0.00 0.00 0.00 0.00 0.00 0.00 0.00 0.00 0.00 0.00 0.00 0.00 0.00 0.00 0.00 0.00 0.00 0.00 0.00 0.00 0.00
0.00 0.00 0.00 0.00 0.00 0.00 0.00 0.00 0.00 0.00 0.00 0.00 0.00 0.00 0.00 0.00 0.00 0.00 0.00 0.00 0.00 0.00 0.00 0.00 0.00 0.00 0.00 0.00 0.00 0.00 0.00 0.00 0.00 0.00 0.00 0.00 0.00 0.00 0.00 0.00 0.00 0.00 0.00 0.00
0.00 0.00 0.00 0.00 0.00 0.00 0.00 0.00 0.00 0.00 0.00 0.00 0.00 0.00 0.00 0.00 0.00 0.00 0.00 0.00 0.00 0.00 0.00 0.00 0.00 0.00 0.00 0.00 0.00 0.00 0.00 0.00 0.00 0.00 0.00 0.00 0.00 0.00 0.00 0.00 0.00 0.00 0.00 0.00
0.00 0.00 0.00 0.00 0.00 0.00 0.00 0.00 0.00 0.00 0.00 0.00 0.00 0.00 0.00 0.00 0.00 0.00 0.00 0.00 0.00 0.00 0.00 0.00 0.00 0.00 0.00 0.00 0.00 0.00 0.00 0.00 0.00 0.00 0.00 0.00 0.00 0.00 0.00 0.00 0.00 0.00 0.00 0.00
0.00 0.00 0.00 0.00 0.00 0.00 0.00 0.00 0.00 0.00 0.00 0.00 0.00 0.00 0.00 0.00 0.00 0.00 0.00 0.00 0.00 0.00 0.00 0.00 0.00 0.00 0.00 0.00 0.00 0.00 0.00 0.00 0.00 0.00 0.00 0.00 0.00 0.00 0.00 0.00 0.00 0.00 0.00 0.00
0.00 0.00 0.00 0.00 0.00 0.00 0.00 0.00 0.00 0.00 0.00 0.00 0.00 0.00 0.00 0.00 0.00 0.00 0.00 0.00 0.00 0.00 0.00 0.00 0.00 0.00 0.00 0.00 0.00 0.00 0.00 0.00 0.00 0.00 0.00 0.00 0.00 0.00 0.00 0.00 0.00 0.00 0.00 0.00
0.00 0.00 0.00 0.00 0.00 0.00 0.00 0.00 0.00 0.00 0.00 0.00 0.00 0.00 0.00 0.00 0.00 0.00 0.00 0.00 0.00 0.00 0.00 0.00 0.00 0.00 0.00 0.00 0.00 0.00 0.00 0.00 0.00 0.00 0.00 0.00 0.00 0.00 0.00 0.00 0.00 0.00 0.00 0.00
0.00 0.00 0.00 0.00 0.00 0.00 0.00 0.00 0.00 0.00 0.00 0.00 0.00 0.00 0.00 0.00 0.00 0.00 0.00 0.00 0.00 0.00 0.00 0.00 0.00 0.00 0.00 0.00 0.00 0.00 0.00 0.00 0.00 0.00 0.00 0.00 0.00 0.00 0.00 0.00 0.00 0.00 0.00 0.00
0.00 0.00 0.00 0.00 0.00 0.00 0.00 0.00 0.00 0.00 0.00 0.00 0.00 0.00 0.00 0.00 0.00 0.00 0.00 0.00 0.00 0.00 0.00 0.00 0.00 0.00 0.00 0.00 0.00 0.00 0.00 0.00 0.00 0.00 0.00 0.00 0.00 0.00 0.00 0.00 0.00 0.00 0.00 0.00
0.00 0.00 0.00 0.00 0.00 0.00 0.00 0.00 0.00 0.00 0.00 0.00 0.00 0.00 0.00 0.00 0.00 0.00 0.00 0.00 0.00 0.00 0.00 0.00 0.00 0.00 0.00 0.00 0.00 0.00 0.00 0.00 0.00 0.00 0.00 0.00 0.00 0.00 0.00 0.00 0.00 0.00 0.00 0.00
0.00 0.00 0.00 0.00 0.00 0.00 0.00 0.00 0.00 0.00 0.00 0.00 0.00 0.00 0.00 0.00 0.00 0.00 0.00 0.00 0.00 0.00 0.00 0.00 0.00 0.00 0.00 0.00 0.00 0.00 0.00 0.00 0.00 0.00 0.00 0.00 0.00 0.00 0.00 0.00 0.00 0.00 0.00 0.00
0.00 0.00 0.00 0.00 0.00 0.00 0.00 0.00 0.00 0.00 0.00 0.00 0.00 0.00 0.00 0.00 0.00 0.00 0.00 0.00 0.00 0.00 0.00 0.00 0.00 0.00 0.00 0.00 0.00 0.00 0.00 0.00 0.00 0.00 0.00 0.00 0.00 0.00 0.00 0.00 0.00 0.00 0.00 0.00
0.00 0.00 0.00 0.00 0.00 0.00 0.00 0.00 0.00 0.00 0.00 0.00 0.00 0.00 0.00 0.00 0.00 0.00 0.00 0.00 0.00 0.00 0.00 0.00 0.00 0.00 0.00 0.00 0.00 0.00 0.00 0.00 0.00 0.00 0.00 0.00 0.00 0.00 0.00 0.00 0.00 0.00 0.00 0.00
0.00 0.00 0.00 0.00 0.00 0.00 0.00 0.00 0.00 0.00 0.00 0.00 0.00 0.00 0.00 0.00 0.00 0.00 0.00 0.00 0.00 0.00 0.00 0.00 0.00 0.00 0.00 0.00 0.00 0.00 0.00 0.00 0.00 0.00 0.00 0.00 0.00 0.00 0.00 0.00 0.00 0.00 0.00 0.00
0.00 0.00 0.00 0.00 0.00 0.00 0.00 0.00 0.00 0.00 0.00 0.00 0.00 0.00 0.00 0.00 0.00 0.00 0.00 0.00 0.00 0.00 0.00 0.00 0.00 0.00 0.00 0.00 0.00 0.00 0.00 0.00 0.00 0.00 0.00 0.00 0.00 0.00 0.00 0.00 0.00 0.00 0.00 0.00
0.00 0.00 0.00 0.00 0.00 0.00 0.00 0.00 0.00 0.00 0.00 0.00 0.00 0.00 0.00 0.00 0.00 0.00 0.00 0.00 0.00 0.00 0.00 0.00 0.00 0.00 0.00 0.00 0.00 0.00 0.00 0.00 0.00 0.00 0.00 0.00 0.00 0.00 0.00 0.00 0.00 0.00 0.00 0.00
0.00 0.00 0.00 0.00 0.00 0.00 0.00 0.00 0.00 0.00 0.00 0.00 0.00 0.00 0.00 0.00 0.00 0.00 0.00 0.00 0.00 0.00 0.00 0.00 0.00 0.00 0.00 0.00 0.00 0.00 0.00 0.00 0.00 0.00 0.00 0.00 0.00 0.00 0.00 0.00 0.00 0.00 0.00 0.00
0.00 0.00 0.00 0.00 0.00 0.00 0.00 0.00 0.00 0.00 0.00 0.00 0.00 0.00 0.00 0.00 0.00 0.00 0.00 0.00 0.00 0.00 0.00 0.00 0.00 0.00 0.00 0.00 0.00 0.00 0.00 0.00 0.00 0.00 0.00 0.00 0.00 0.00 0.00 0.00 0.00 0.00 0.00 0.00
0.00 0.00 0.00 0.00 0.00 0.00 0.00 0.00 0.00 0.00 0.00 0.00 0.00 0.00 0.00 0.00 0.00 0.00 0.00 0.00 0.00 0.00 0.00 0.00 0.00 0.00 0.00 0.00 0.00 0.00 0.00 0.00 0.00 0.00 0.00 0.00 0.00 0.00 0.00 0.00 0.00 0.00 0.00 0.00
0.00 0.00 0.00 0.00 0.00 0.00 0.00 0.00 0.00 0.00 0.00 0.00 0.00 0.00 0.00 0.00 0.00 0.00 0.00 0.00 0.00 0.00 0.00 0.00 0.00 0.00 0.00 0.00 0.00 0.00 0.00 0.00 0.00 0.00 0.00 0.00 0.00 0.00 0.00 0.00 0.00 0.00 0.00 0.00
0.00 0.00 0.00 0.00 0.00 0.00 0.00 0.00 0.00 0.00 0.00 0.00 0.00 0.00 0.00 0.00 0.00 0.00 0.00 0.00 0.00 0.00 0.00 0.00 0.00 0.00 0.00 0.00 0.00 0.00 0.00 0.00 0.00 0.00 0.00 0.00 0.00 0.00 0.00 0.00 0.00 0.00 0.00 0.00
MSLP
1018.10 1018.52 1018.83 1019.03 1019.11 1019.09 1018.99 1018.84 1018.67 1018.48 1018.30 1018.13 1017.98 1017.84 1017.71 1017.59 1017.49 1017.38 1017.29 1017.20 1017.11 1017.02 1016.95 1016.89 1016.86 1016.88 1016.95 1017.08 1017.27 1017.52 1017.80 1018.11 1018.43 1018.73 1019.00 1019.25 1019.47 1019.67 1019.85 1020.02 1020.18 1020.33 1020.47 1020.60
1018.21 1018.56 1018.81 1018.97 1019.04 1019.04 1018.97 1018.86 1018.72 1018.57 1018.40 1018.23 1018.06 1017.90 1017.76 1017.63 1017.54 1017.46 1017.42 1017.39 1017.37 1017.35 1017.34 1017.33 1017.33 1017.36 1017.42 1017.53 1017.68 1017.88 1018.12 1018.38 1018.64 1018.89 1019.10 1019.29 1019.43 1019.55 1019.64 1019.72 1019.80 1019.88 1019.96 1020.04
1018.20 1018.47 1018.67 1018.80 1018.87 1018.90 1018.87 1018.81 1018.71 1018.58 1018.42 1018.23 1018.03 1017.84 1017.66 1017.52 1017.43 1017.39 1017.39 1017.43 1017.49 1017.56 1017.62 1017.68 1017.72 1017.77 1017.84 1017.93 1018.06 1018.23 1018.43 1018.65 1018.87 1019.06 1019.22 1019.34 1019.41 1019.45 1019.45 1019.45 1019.44 1019.44 1019.45 1019.47
1018.09 1018.29 1018.44 1018.56 1018.64 1018.70 1018.72 1018.70 1018.64 1018.52 1018.34 1018.13 1017.89 1017.64 1017.42 1017.26 1017.16 1017.15 1017.21 1017.33 1017.48 1017.64 1017.79 1017.91 1018.02 1018.10 1018.18 1018.26 1018.38 1018.52 1018.69 1018.87 1019.05 1019.20 1019.31 1019.36 1019.37 1019.33 1019.25 1019.16 1019.08 1019.00 1018.95 1018.92
1017.92 1018.06 1018.18 1018.29 1018.39 1018.48 1018.55 1018.57 1018.53 1018.40 1018.21 1017.94 1017.64 1017.34 1017.07 1016.87 1016.78 1016.79 1016.91 1017.10 1017.35 1017.61 1017.85 1018.06 1018.22 1018.34 1018.43 1018.51 1018.61 1018.73 1018.86 1019.01 1019.14 1019.25 1019.31 1019.32 1019.26 1019.16 1019.02 1018.87 1018.72 1018.59 1018.49 1018.41
1017.70 1017.80 1017.90 1018.02 1018.15 1018.28 1018.39 1018.44 1018.40 1018.27 1018.03 1017.72 1017.35 1016.98 1016.66 1016.43 1016.34 1016.38 1016.55 1016.82 1017.16 1017.52 1017.85 1018.13 1018.35 1018.50 1018.60 1018.68 1018.76 1018.84 1018.94 1019.05 1019.14 1019.21 1019.23 1019.19 1019.09 1018.94 1018.75 1018.56 1018.37 1018.21 1018.07 1017.97
1017.44 1017.52 1017.63 1017.78 1017.94 1018.12 1018.26 1018.33 1018.29 1018.14 1017.86 1017.49 1017.06 1016.63 1016.26 1016.01 1015.91 1015.98 1016.21 1016.56 1016.98 1017.42 1017.83 1018.18 1018.43 1018.61 1018.72 1018.78 1018.83 1018.87 1018.93 1018.99 1019.05 1019.08 1019.06 1018.99 1018.86 1018.68 1018.48 1018.26 1018.05 1017.87 1017.72 1017.61
1017.13 1017.23 1017.36 1017.55 1017.76 1017.97 1018.14 1018.23 1018.19 1018.02 1017.71 1017.29 1016.81 1016.33 1015.93 1015.67 1015.58 1015.68 1015.95 1016.36 1016.85 1017.36 1017.83 1018.22 1018.50 1018.68 1018.78 1018.82 1018.83 1018.84 1018.86 1018.88 1018.90 1018.90 1018.85 1018.76 1018.62 1018.43 1018.21 1017.99 1017.78 1017.60 1017.45 1017.32
1016.76 1016.89 1017.07 1017.31 1017.57 1017.83 1018.03 1018.13 1018.10 1017.90 1017.57 1017.12 1016.61 1016.11 1015.70 1015.43 1015.36 1015.49 1015.80 1016.26 1016.80 1017.35 1017.85 1018.26 1018.56 1018.73 1018.82 1018.83 1018.81 1018.78 1018.76 1018.75 1018.74 1018.72 1018.66 1018.56 1018.41 1018.21 1018.00 1017.77 1017.57 1017.38 1017.23 1017.09
1016.32 1016.51 1016.75 1017.05 1017.36 1017.65 1017.88 1017.99 1017.96 1017.77 1017.42 1016.96 1016.45 1015.95 1015.55 1015.31 1015.26 1015.42 1015.77 1016.26 1016.82 1017.39 1017.91 1018.32 1018.61 1018.77 1018.83 1018.82 1018.78 1018.72 1018.68 1018.65 1018.63 1018.60 1018.53 1018.42 1018.27 1018.07 1017.84 1017.61 1017.39 1017.20 1017.02 1016.87
1015.86 1016.10 1016.40 1016.74 1017.09 1017.41 1017.66 1017.78 1017.75 1017.56 1017.22 1016.78 1016.29 1015.83 1015.47 1015.27 1015.26 1015.45 1015.83 1016.33 1016.90 1017.48 1017.99 1018.39 1018.66 1018.81 1018.85 1018.83 1018.77 1018.70 1018.66 1018.63 1018.60 1018.57 1018.50 1018.38 1018.22 1018.00 1017.74 1017.48 1017.23 1016.99 1016.78 1016.59
1015.42 1015.71 1016.05 1016.42 1016.78 1017.11 1017.35 1017.46 1017.43 1017.25 1016.94 1016.53 1016.09 1015.69 1015.39 1015.25 1015.30 1015.53 1015.93 1016.45 1017.03 1017.59 1018.08 1018.47 1018.72 1018.86 1018.89 1018.86 1018.80 1018.74 1018.70 1018.68 1018.66 1018.63 1018.56 1018.42 1018.23 1017.97 1017.67 1017.34 1017.02 1016.72 1016.45 1016.19
1015.08 1015.40 1015.75 1016.11 1016.46 1016.75 1016.95 1017.04 1017.00 1016.82 1016.54 1016.18 1015.81 1015.49 1015.27 1015.21 1015.33 1015.62 1016.06 1016.59 1017.17 1017.72 1018.20 1018.57 1018.81 1018.93 1018.96 1018.94 1018.89 1018.85 1018.82 1018.81 1018.80 1018.76 1018.67 1018.50 1018.26 1017.94 1017.57 1017.16 1016.74 1016.35 1015.98 1015.65
1014.90 1015.21 1015.53 1015.85 1016.13 1016.35 1016.49 1016.53 1016.45 1016.27 1016.01 1015.71 1015.43 1015.20 1015.09 1015.13 1015.33 1015.69 1016.17 1016.74 1017.32 1017.87 1018.34 1018.69 1018.93 1019.05 1019.08 1019.07 1019.03 1019.00 1018.98 1018.97 1018.95 1018.90 1018.77 1018.57 1018.26 1017.86 1017.39 1016.88 1016.36 1015.86 1015.39 1014.98
1014.87 1015.15 1015.41 1015.65 1015.83 1015.95 1015.99 1015.95 1015.82 1015.62 1015.39 1015.15 1014.95 1014.83 1014.84 1014.99 1015.30 1015.74 1016.28 1016.88 1017.49 1018.05 1018.51 1018.86 1019.09 1019.21 1019.24 1019.23 1019.20 1019.16 1019.14 1019.12 1019.07 1018.98 1018.81 1018.54 1018.17 1017.69 1017.12 1016.51 1015.88 1015.27 1014.71 1014.21
1014.98 1015.20 1015.38 1015.50 1015.56 1015.55 1015.47 1015.33 1015.14 1014.92 1014.70 1014.52 1014.42 1014.42 1014.55 1014.82 1015.24 1015.78 1016.39 1017.05 1017.68 1018.25 1018.72 1019.06 1019.29 1019.40 1019.43 1019.41 1019.36 1019.30 1019.25 1019.19 1019.10 1018.96 1018.73 1018.40 1017.95 1017.39 1016.74 1016.04 1015.33 1014.63 1013.99 1013.42
1015.13 1015.28 1015.36 1015.37 1015.29 1015.14 1014.94 1014.70 1014.45 1014.21 1014.02 1013.90 1013.89 1014.01 1014.26 1014.67 1015.20 1015.84 1016.53 1017.23 1017.90 1018.48 1018.95 1019.29 1019.50 1019.60 1019.60 1019.55 1019.46 1019.36 1019.26 1019.14 1018.99 1018.78 1018.49 1018.09 1017.59 1016.97 1016.27 1015.51 1014.74 1014.00 1013.31 1012.69
1015.20 1015.29 1015.28 1015.18 1014.98 1014.72 1014.42 1014.10 1013.80 1013.56 1013.40 1013.35 1013.44 1013.67 1014.06 1014.58 1015.22 1015.94 1016.70 1017.45 1018.14 1018.72 1019.19 1019.51 1019.69 1019.75 1019.71 1019.61 1019.47 1019.30 1019.13 1018.93 1018.71 1018.43 1018.08 1017.63 1017.09 1016.45 1015.73 1014.96 1014.18 1013.42 1012.71 1012.06
1015.07 1015.12 1015.05 1014.87 1014.59 1014.26 1013.89 1013.53 1013.23 1013.01 1012.90 1012.94 1013.13 1013.48 1013.98 1014.61 1015.34 1016.12 1016.92 1017.69 1018.37 1018.95 1019.38 1019.66 1019.80 1019.81 1019.72 1019.55 1019.34 1019.09 1018.84 1018.56 1018.26 1017.92 1017.52 1017.05 1016.49 1015.86 1015.16 1014.42 1013.66 1012.92 1012.21 1011.57
1014.70 1014.73 1014.63 1014.42 1014.11 1013.75 1013.38 1013.03 1012.77 1012.61 1012.59 1012.72 1013.02 1013.47 1014.07 1014.78 1015.56 1016.38 1017.18 1017.93 1018.58 1019.11 1019.49 1019.71 1019.79 1019.74 1019.58 1019.34 1019.05 1018.73 1018.40 1018.05 1017.69 1017.30 1016.87 1016.38 1015.84 1015.23 1014.57 1013.88 1013.18 1012.48 1011.80 1011.16
1014.09 1014.12 1014.03 1013.83 1013.55 1013.23 1012.90 1012.63 1012.45 1012.39 1012.48 1012.72 1013.13 1013.67 1014.34 1015.09 1015.89 1016.70 1017.46 1018.15 1018.74 1019.18 1019.48 1019.62 1019.62 1019.50 1019.27 1018.97 1018.61 1018.23 1017.84 1017.44 1017.03 1016.60 1016.16 1015.68 1015.15 1014.59 1013.99 1013.35 1012.71 1012.05 1011.41 1010.78
1013.31 1013.37 1013.31 1013.17 1012.96 1012.73 1012.51 1012.36 1012.30 1012.37 1012.58 1012.94 1013.44 1014.06 1014.76 1015.52 1016.30 1017.05 1017.73 1018.32 1018.80 1019.13 1019.32 1019.37 1019.29 1019.09 1018.80 1018.45 1018.05 1017.63 1017.20 1016.77 1016.33 1015.90 1015.44 1014.97 1014.48 1013.95 1013.39 1012.81 1012.21 1011.59 1010.97 1010.34
1012.51 1012.59 1012.60 1012.54 1012.43 1012.32 1012.24 1012.23 1012.33 1012.54 1012.88 1013.35 1013.92 1014.58 1015.30 1016.03 1016.73 1017.39 1017.95 1018.41 1018.74 1018.95 1019.02 1018.96 1018.79 1018.54 1018.20 1017.82 1017.40 1016.97 1016.53 1016.09 1015.65 1015.21 1014.76 1014.30 1013.82 1013.32 1012.79 1012.23 1011.65 1011.05 1010.43 1009.79
1011.83 1011.94 1012.01 1012.03 1012.04 1012.06 1012.13 1012.28 1012.52 1012.87 1013.33 1013.88 1014.51 1015.19 1015.88 1016.54 1017.15 1017.67 1018.09 1018.40 1018.58 1018.64 1018.58 1018.42 1018.18 1017.87 1017.51 1017.12 1016.71 1016.29 1015.86 1015.43 1015.01 1014.57 1014.13 1013.67 1013.19 1012.69 1012.16 1011.60 1011.02 1010.40 1009.76 1009.10
1011.39 1011.52 1011.63 1011.74 1011.85 1012.00 1012.20 1012.48 1012.85 1013.31 1013.86 1014.47 1015.13 1015.79 1016.42 1017.00 1017.48 1017.86 1018.13 1018.27 1018.29 1018.21 1018.04 1017.79 1017.49 1017.14 1016.78 1016.39 1016.01 1015.61 1015.22 1014.82 1014.41 1013.99 1013.55 1013.08 1012.59 1012.07 1011.51 1010.93 1010.31 1009.66 1008.99 1008.28
1011.27 1011.40 1011.54 1011.70 1011.89 1012.13 1012.44 1012.82 1013.28 1013.82 1014.41 1015.05 1015.69 1016.30 1016.86 1017.33 1017.69 1017.93 1018.04 1018.04 1017.92 1017.71 1017.44 1017.11 1016.76 1016.40 1016.03 1015.67 1015.31 1014.96 1014.61 1014.24 1013.86 1013.45 1013.00 1012.53 1012.01 1011.46 1010.86 1010.24 1009.57 1008.88 1008.16 1007.42
Thickness
5669 5671 5671 5676 5676 5675 5672 5669 5671 5677 5677 5672 5677 5680 5684 5683 5683 5683 5683 5682 5681 5679 5678 5677 5677 5676 5674 5671 5667 5663 5659 5654 5649 5643 5638 5633 5629 5626 5622 5619 5616 5613 5610 5607
5661 5666 5674 5671 5665 5662 5663 5663 5669 5673 5667 5668 5672 5675 5680 5679 5678 5677 5676 5675 5674 5674 5672 5670 5669 5668 5666 5663 5659 5656 5651 5647 5642 5637 5633 5628 5625 5622 5619 5615 5612 5609 5605 5602
5661 5666 5663 5659 5657 5657 5659 5662 5667 5665 5666 5662 5663 5673 5674 5674 5673 5669 5669 5668 5668 5666 5665 5663 5661 5659 5657 5654 5650 5646 5643 5639 5634 5630 5625 5620 5617 5615 5613 5611 5608 5604 5601 5598
5657 5660 5654 5655 5657 5658 5659 5663 5659 5655 5658 5667 5660 5669 5672 5671 5667 5666 5666 5664 5662 5658 5657 5654 5653 5649 5646 5643 5639 5637 5634 5630 5626 5622 5619 5616 5613 5612 5610 5606 5603 5600 5596 5593
5654 5651 5650 5652 5658 5657 5659 5653 5652 5650 5652 5656 5657 5661 5676 5667 5663 5664 5663 5659 5655 5652 5649 5646 5642 5639 5636 5633 5631 5629 5626 5622 5618 5615 5612 5609 5607 5605 5603 5599 5596 5594 5591 5587
5652 5651 5654 5655 5653 5651 5648 5646 5642 5643 5647 5651 5659 5658 5671 5669 5669 5666 5660 5655 5649 5645 5642 5638 5634 5631 5628 5625 5623 5621 5618 5614 5610 5607 5604 5601 5599 5597 5594 5592 5590 5587 5584 5580
5641 5646 5649 5650 5645 5642 5644 5646 5646 5647 5648 5656 5648 5649 5669 5673 5670 5667 5659 5652 5646 5640 5637 5632 5628 5625 5621 5618 5615 5613 5610 5606 5602 5599 5596 5593 5590 5587 5585 5583 5581 5579 5577 5574
5638 5643 5645 5646 5650 5647 5645 5647 5645 5644 5649 5653 5640 5648 5669 5662 5657 5655 5653 5648 5640 5635 5631 5626 5622 5618 5614 5610 5607 5605 5602 5598 5594 5591 5588 5584 5580 5578 5576 5573 5570 5568 5566 5564
5640 5640 5637 5639 5642 5646 5638 5641 5644 5642 5634 5638 5652 5655 5662 5652 5649 5645 5643 5639 5633 5629 5623 5619 5614 5611 5607 5603 5599 5595 5592 5588 5584 5581 5578 5575 5572 5568 5566 5563 5560 5558 5555 5551
5644 5636 5632 5630 5633 5629 5637 5639 5632 5633 5631 5634 5647 5650 5658 5652 5648 5642 5639 5634 5629 5622 5617 5611 5607 5602 5598 5594 5589 5585 5582 5578 5574 5571 5568 5564 5562 5559 5555 5552 5550 5546 5543 5539
5638 5635 5624 5624 5628 5632 5625 5625 5631 5633 5630 5631 5633 5650 5656 5653 5648 5641 5636 5631 5624 5616 5611 5605 5599 5594 5588 5584 5580 5576 5572 5568 5565 5561 5558 5555 5552 5548 5544 5541 5538 5534 5531 5527
5632 5634 5629 5626 5623 5625 5631 5633 5630 5626 5625 5623 5629 5643 5647 5644 5640 5635 5629 5621 5615 5609 5602 5596 5590 5584 5580 5576 5571 5567 5562 5559 5554 5550 5547 5543 5540 5536 5533 5530 5526 5522 5518 5513
5624 5626 5621 5617 5614 5613 5618 5620 5621 5623 5622 5619 5619 5637 5633 5631 5628 5623 5620 5613 5605 5598 5592 5586 5581 5576 5571 5566 5561 5557 5552 5548 5543 5539 5535 5532 5529 5525 5521 5517 5513 5508 5504 5499
5624 5626 5629 5628 5630 5625 5617 5614 5612 5615 5616 5619 5624 5636 5630 5623 5619 5615 5610 5604 5598 5590 5583 5577 5572 5566 5561 5556 5551 5546 5542 5536 5531 5527 5524 5520 5517 5513 5508 5504 5499 5494 5489 5484
5616 5619 5622 5622 5617 5617 5620 5617 5608 5611 5622 5620 5630 5631 5634 5626 5618 5611 5603 5594 5587 5580 5572 5566 5561 5556 5550 5546 5541 5535 5530 5525 5520 5516 5512 5508 5504 5499 5494 5490 5485 5480 5475 5469
5608 5610 5608 5606 5602 5602 5604 5612 5611 5609 5615 5618 5621 5624 5629 5617 5609 5601 5593 5584 5577 5570 5562 5555 5549 5545 5540 5535 5529 5524 5519 5513 5508 5504 5500 5496 5491 5486 5481 5477 5472 5467 5461 5455
5601 5601 5599 5603 5591 5591 5601 5618 5615 5611 5614 5614 5613 5620 5612 5599 5594 5590 5583 5574 5567 5559 5552 5545 5539 5533 5528 5522 5517 5512 5507 5501 5496 5492 5487 5483 5478 5473 5468 5463 5458 5453 5448 5442
5595 5595 5594 5590 5583 5579 5621 5614 5613 5611 5611 5608 5606 5602 5595 5591 5583 5577 5572 5564 5556 5547 5540 5533 5527 5521 5515 5510 5504 5499 5494 5489 5484 5480 5475 5470 5465 5460 5455 5450 5445 5440 5434 5427
5587 5588 5582 5578 5584 5597 5607 5604 5599 5597 5603 5604 5597 5590 5581 5572 5566 5561 5554 5549 5543 5535 5528 5522 5515 5509 5503 5498 5493 5487 5482 5478 5473 5468 5464 5459 5453 5447 5442 5437 5432 5426 5419 5413
5566 5576 5578 5569 5569 5578 5605 5596 5591 5590 5593 5596 5588 5580 5570 5562 5562 5560 5544 5534 5528 5521 5514 5508 5502 5497 5492 5487 5481 5475 5472 5468 5464 5459 5453 5446 5440 5434 5429 5423 5417 5411 5404 5398
5559 5562 5567 5570 5568 5586 5594 5581 5578 5578 5592 5582 5576 5570 5562 5558 5556 5545 5531 5522 5515 5508 5502 5496 5490 5486 5481 5476 5469 5465 5462 5458 5453 5447 5440 5434 5427 5421 5415 5409 5402 5396 5390 5385
5567 5564 5563 5565 5560 5572 5576 5569 5574 5581 5571 5567 5562 5557 5550 5543 5531 5523 5516 5508 5501 5495 5490 5484 5479 5475 5470 5464 5458 5455 5452 5448 5442 5435 5429 5423 5416 5409 5401 5395 5390 5383 5377 5373
5565 5573 5573 5571 5576 5571 5568 5568 5564 5561 5558 5553 5549 5542 5535 5526 5518 5510 5503 5497 5490 5484 5479 5473 5468 5463 5459 5454 5449 5445 5441 5435 5430 5424 5418 5412 5405 5397 5389 5382 5377 5371 5364 5360
5557 5553 5558 5558 5562 5557 5553 5552 5548 5546 5544 5539 5534 5527 5521 5514 5506 5498 5491 5485 5479 5473 5467 5462 5456 5453 5450 5445 5440 5434 5429 5423 5417 5412 5406 5400 5393 5387 5379 5371 5364 5358 5353 5348
5558 5546 5548 5552 5551 5543 5541 5540 5537 5531 5527 5521 5516 5511 5506 5499 5492 5485 5479 5473 5467 5461 5455 5450 5445 5441 5438 5435 5430 5424 5418 5411 5406 5400 5394 5388 5381 5374 5369 5362 5354 5348 5343 5335
5543 5543 5544 5551 5548 5543 5542 5534 5526 5519 5513 5508 5502 5495 5489 5485 5479 5473 5467 5462 5455 5450 5444 5439 5434 5431 5428 5424 5419 5413 5406 5398 5392 5387 5381 5374 5368 5362 5356 5352 5349 5343 5335 5333